User: anonymous   Login
Location: Unspecified
(0.0000°N, 0.0000°E)
Time: 11:43:06
(UTC+00:00)
Language:

SARAL - Orbit

View from above orbital plane
View from above orbital plane
View from above satellite
View from above satellite

Ground track
Ground track

The orbit data is extracted from the following two-line orbital elements,

1 39086U 13009A   18267.61021248 -.00000012 +00000-0 +11647-4 0  9994
2 39086 098.5413 092.9467 0000989 028.2179 331.9058 14.32022940291570
Epoch (UTC): 24 September 2018 14:38:42
Eccentricity: 0.0000989
inclination: 98.5413°
perigee height: 784 km
apogee height: 785 km
right ascension of ascending node: 92.9467°
argument of perigee: 28.2179°
revolutions per day: 14.32022940
mean anomaly at epoch: 331.9058°
orbit number at epoch: 29157

The dashed part of the orbit path shows where the satellite is in the earth's shadow,  

DLR